Regional Weather Roundup
Issued by NWS Cleveland, OH

Home | Current Version | Previous Version | Text Only | Print | Product List | Glossary Off
Versions: 1 2 3 4 5 6 7 8 9 10 11 12 13 14 15 16 17 18 19 20 21 22 23 24 25 26 27 28 29 30 31 32 33 34 35 36 37 38 39 40 41 42 43 44 45 46 47 48 49 50

875
ASUS41 KCLE 290700
RWRCLE
OHIO REGIONAL WEATHER ROUNDUP
NATIONAL WEATHER SERVICE WILMINGTON, OH
300 AM EDT MON AUG 29 2016

NOTE: "FAIR" INDICATES FEW OR NO CLOUDS BELOW 12,000 FEET WITH NO
SIGNIFICANT WEATHER AND/OR OBSTRUCTIONS TO VISIBILITY.

OHZ001>008-015>018-024>027-034-035-043-044-290800-
   NORTHWEST OHIO

CITY           SKY/WX    TMP DP  RH WIND       PRES   REMARKS
DEFIANCE       FAIR      68  66  93 CALM      30.22F
FINDLAY        MOCLDY    73  67  81 CALM      30.21S
TOLEDO EXPRESS FAIR      71  71 100 CALM      30.21F
TOLEDO EXEC    FAIR      74  73  97 CALM      30.22S
LIMA           FAIR      67  67 100 NE5       30.22S
$$

OHZ009>014-019>023-028>033-038-089-290800-
   NORTHEAST OHIO

CITY           SKY/WX    TMP DP  RH WIND       PRES   REMARKS
CLE-HOPKINS    MOCLDY    73  67  81 CALM      30.23S
CLE-LAKEFRONT  MOCLDY    77  73  87 N10       30.20S
CUY CO. ARPT   NOT AVBL
LORAIN-ELYRIA  FAIR      65  64  97 CALM      30.22S FOG
ASHTABULA      MOCLDY    70  70 100 CALM      30.22S
AKRON-CANTON   FAIR      68  64  87 CALM      30.22F
WOOSTER        NOT AVBL
MANSFIELD      FAIR      68  67  96 W3        30.23S
YOUNGSTOWN     FAIR      68  66  93 NW5       30.21F
$$

OHZ042-051>053-060>062-070>072-077>081-290800-
  SOUTHWEST OHIO

CITY           SKY/WX    TMP DP  RH WIND       PRES   REMARKS
CINC-COVINGTON FAIR      71  69  93 CALM      30.19R
CINC-LUNKEN    FAIR      69  69 100 NE5       30.19R
HAMILTON       FAIR      68  66  93 CALM      30.20S FOG
DAYTON         NOT AVBL
WRIGHT-PAT AFB NOT AVBL
DAYTON GENERAL FAIR      69  66  90 NE8       30.19F
WILMINGTON     FAIR      68  66  93 NE7       30.20S
$$

OHZ036-037-039>041-045>050-054>059-063>069-073>076-082>088-290800-
  CENTRAL AND SOUTHEAST OHIO

CITY           SKY/WX    TMP DP  RH WIND       PRES   REMARKS
COLUMBUS       MOCLDY    72  69  90 N6        30.18F
OSU AIRPORT    FAIR      74  71  91 N3        30.19F
BOLTON FIELD   NOT AVBL
RICKENBACK AFB NOT AVBL
NEWARK         FAIR      71  68  90 CALM      30.19F
MARION         FAIR      71  68  90 N6        30.22S
LANCASTER      FAIR      71  68  90 CALM      30.18F
ZANESVILLE     FAIR      68  66  93 CALM      30.19F
NEW PHILLY     FAIR      68  64  87 CALM      30.20F
$$




USA.gov is the U.S. government's official web portal to all federal, state and local government web resources and services.